sat.trackr.live / text

‹ back to catalog

STARLINK-34033

NORAD 64045 · 2025-102Z

PAYLOAD ACTIVE UNKNOWN

§ Identity

Operator
Country
US
Launch date
2025-05-16
Launch site
AFWTR
Launch vehicle
Mass (kg)
RCS (m²)

Purposes: comms

External: N2YO · Heavens-Above · Gunter

§ Orbital elements

Epoch: 2026-09-20T22:00:30.578976Z

Period
94.14 min
Inclination
70.0003°
Eccentricity
0.0003515
Mean motion
15.29591686 rev/d
Perigee alt
474.6 km
Apogee alt
479.4 km
Semi-major
6,855.2 km
B*
4.0769e-4
RAAN
339.8874°
Arg perigee
271.0905°
Mean anomaly
88.9868°
Rev number
7,518

§ Raw data

STARLINK-340331 64045U 25102Z   26263.91702059  .00011614  00000+0  40769-3 0  99922 64045  70.0003 339.8874 0003515 271.0905  88.9868 15.29591686 75181

JSON: /api/v1/satellites/64045 · /tle

For live sub-satellite position, see the globe view (requires WebGL).

§ Visibility from observer

Set your observer location to see the next 7 days of passes ≥ 10°. The values pass through the URL so the page stays shareable.

No JS? Fill the form by hand. The geolocation button needs JavaScript.